Location: Piotrkow Trybunalski
(51.4000°N, 19.6830°E)
Time: 03:55:12
(UTC+02:00)

A-11 Canister half - Pass Details

Date: 03 February 2023
Orbit: 1526 x 1682 km, 47.3° (Epoch: 24 March)

Event Time Altitude Azimuth Distance (km) Brightness Sun altitude
Rises 05:52:23 0° 227° (SW) 4,669 11.2 -13.3°
Reaches altitude 10° 05:55:32 10° 222° (SW) 3,687 10.7 -12.8°
Maximum altitude 06:04:16 48° 152° (SSE) 1,928 9.8 -11.5°
Drops below altitude 10° 06:13:08 10° 82° (E) 3,749 12.3 -10.1°
Sets 06:16:21 0° 77° (ENE) 4,753 12.8 -9.7°
